Location: Nashville
(36.1660°N, 86.7840°W)
Time: 07:32:36
(UTC-05:00)

AO-109 - Pass Details

Date: 29 May 2022
Orbit: 477 x 502 km, 60.7° (Epoch: 27 June)

Event Time Altitude Azimuth Distance (km) Brightness Sun altitude
Rises 00:12:25 0° 315° (NW) 2,599 ? -31.7°
Reaches altitude 10° 00:14:43 10° 306° (NW) 1,712 ? -31.8°
Enters shadow 00:14:48 10° 305° (NW) 1,685 ? -31.8°
